This demonstration page uses our WeatherBlox Daily Observations layout. Learn more.

Left ArrowRight Arrow

Hourly Observations for May 8, 2021

Temp ( °F °C ) Dew Point ( °F °C ) Humidity (%) Winds ( mph kmh ) Pressure ( in mb ) Visibility ( mi km ) Precip ( " mm )
12:53 am 00:53 Clear 49 9.4 42 5.6 77 77 Calm 30.08 1019 10 16 0.00 0.00
1:53 am 01:53 Clear 51 10.6 42 5.6 71 71 Calm 30.09 1019 10 16 0.00 0.00
2:53 am 02:53 Clear 47 8.3 42 5.6 83 83 Calm 30.09 1019 10 16 0.00 0.00
3:53 am 03:53 Clear 46 7.8 43 6.1 89 89 Calm 30.09 1019 10 16 0.00 0.00
4:53 am 04:53 Clear 48 8.9 43 6.1 83 83 Calm 30.09 1019 10 16 0.00 0.00
5:53 am 05:53 Clear 47 8.3 43 6.1 86 86 Calm 30.10 1019 10 16 0.00 0.00
6:53 am 06:53 Sunny 48 8.9 42 5.6 80 80 Calm 30.11 1020 10 16 0.00 0.00
7:53 am 07:53 Mostly Sunny 50 10 43 6.1 77 77 SW 3 6 30.12 1020 10 16 0.00 0.00
8:53 am 08:53 Mostly Sunny 54 12.2 43 6.1 67 67 S 3 6 30.13 1020 10 16 0.00 0.00
9:53 am 09:53 Mostly Sunny 60 15.6 46 7.8 60 60 VRB 3 6 30.13 1020 10 16 0.00 0.00
10:53 am 10:53 Cloudy 63 17.2 45 7.2 52 52 WSW 3 6 30.15 1021 10 16 0.00 0.00
11:53 am 11:53 Mostly Cloudy 67 19.4 44 6.7 44 44 N 9 15 30.15 1021 10 16 0.00 0.00
12:53 pm 12:53 Partly Cloudy 71 21.7 40 4.4 32 32 WNW 9 15 30.14 1021 10 16 0.00 0.00
1:53 pm 13:53 Mostly Sunny 72 22.2 40 4.4 31 31 VRB 3 6 30.12 1020 10 16 0.00 0.00
2:53 pm 14:53 Mostly Cloudy 74 23.3 41 5 31 31 WNW 3 6 30.10 1019 10 16 0.00 0.00
3:53 pm 15:53 Sunny 74 23.3 41 5 31 31 NW 7 11 30.07 1018 10 16 0.00 0.00
4:53 pm 16:53 Sunny 76 24.4 42 5.6 30 30 NW 7 11 30.05 1018 10 16 0.00 0.00
5:53 pm 17:53 Mostly Cloudy 73 22.8 42 5.6 33 33 WNW 8 13 30.05 1018 10 16 0.00 0.00
6:53 pm 18:53 Cloudy 73 22.8 43 6.1 34 34 W 5 7 30.04 1017 10 16 0.00 0.00
7:53 pm 19:53 Sunny 71 21.7 44 6.7 38 38 Calm 30.04 1017 10 16 0.00 0.00
8:53 pm 20:53 Clear 64 17.8 48 8.9 56 56 Calm 30.05 1018 10 16 0.00 0.00
9:53 pm 21:53 Clear 60 15.6 51 10.6 72 72 Calm 30.06 1018 10 16 0.00 0.00
10:53 pm 22:53 Clear 57 13.9 51 10.6 81 81 Calm 30.07 1018 10 16 0.00 0.00
11:53 pm 23:53 Clear 55 12.8 51 10.6 87 87 Calm 30.06 1018 10 16 0.00 0.00

Powered by AerisWeather